Location: Newark
(57.0000°N, 24.5500°E)
Time: 07:37:27
(UTC+00:00)

N. Korean satellite - Visible Passes

Search period start: 22 January 2020 00:00
Search period end: 01 February 2020 00:00
Orbit: 454 x 507 km, 97.2° (Epoch: 21 January)

Date Brightness Start Highest point End Pass type
(mag) Time Alt. Az. Time Alt. Az. Time Alt. Az.
22 Jan 8.3 03:50:47 10° NNE 03:54:02 33° E 03:57:18 10° SSE visible
22 Jan 7.4 05:24:18 10° N 05:27:23 29° WNW 05:30:30 10° SW visible
22 Jan 9.4 16:08:10 10° SW 16:10:48 21° W 16:13:28 10° NW visible
23 Jan 9.3 03:25:40 10° NE 03:28:21 20° E 03:31:03 10° SE visible
23 Jan 6.7 04:58:34 10° N 05:02:00 49° WNW 05:05:27 10° SW visible
23 Jan 8.3 15:41:57 10° SSW 15:45:07 35° W 15:48:20 10° NNW visible
24 Jan 10.0 03:01:09 10° ENE 03:02:36 12° E 03:04:01 10° ESE visible
24 Jan 6.4 04:32:58 10° NNE 04:36:32 89° WNW 04:40:07 10° SSW visible
24 Jan 6.9 15:16:07 10° S 15:19:31 66° WSW 15:22:58 10° NNW visible
25 Jan 7.5 04:07:30 10° NNE 04:10:59 50° E 04:14:29 10° S visible
25 Jan 7.8 05:41:24 10° N 05:44:09 21° WNW 05:46:56 10° WSW visible
25 Jan 9.8 16:25:51 10° WSW 16:27:50 15° W 16:29:50 10° NW visible
26 Jan 8.7 03:42:13 10° NNE 03:45:21 28° E 03:48:31 10° SSE visible
26 Jan 7.1 05:15:33 10° N 05:18:48 34° WNW 05:22:06 10° SW visible
26 Jan 9.1 15:59:13 10° SSW 16:02:05 24° W 16:05:00 10° NW visible
27 Jan 9.6 03:17:13 10° NE 03:19:39 17° E 03:22:06 10° SE visible
27 Jan 6.5 04:49:52 10° N 04:53:23 60° WNW 04:56:57 10° SSW visible
27 Jan 7.9 15:33:08 10° S 15:36:25 43° W 15:39:46 10° NNW visible
28 Jan 10.2 02:53:27 10° ENE 02:53:51 10° E 02:54:15 10° E visible
28 Jan 6.7 04:24:18 10° NNE 04:27:53 76° ESE 04:31:31 10° S visible
28 Jan 10.3 16:44:33 10° W 16:44:54 10° W 16:45:14 10° WNW visible
29 Jan 7.9 03:58:53 10° NNE 04:02:19 41° E 04:05:47 10° S visible
29 Jan 7.6 05:32:35 10° N 05:35:34 25° WNW 05:38:36 10° WSW visible
29 Jan 9.7 16:16:42 10° SW 16:19:05 17° W 16:21:30 10° NW visible
30 Jan 9.0 03:33:39 10° NE 03:36:40 24° E 03:39:41 10° SSE visible
30 Jan 6.9 05:06:48 10° N 05:10:12 41° WNW 05:13:39 10° SW visible
30 Jan 8.8 15:50:18 10° SSW 15:53:22 29° W 15:56:29 10° NNW visible
31 Jan 9.8 03:08:48 10° NE 03:10:55 15° E 03:13:03 10° SE visible
31 Jan 6.5 04:41:09 10° NNE 04:44:45 74° WNW 04:48:24 10° SSW visible
31 Jan 7.4 15:24:21 10° S 15:27:44 53° W 15:31:10 10° NNW visible
